Location: Drocourt
(49.0571°N, 1.7669°E)
Time: 20:55:21
(UTC+00:00)

Cosmos 1461 - Pass Details

Date: 09 February 2023
Orbit: 492 x 644 km, 65.0° (Epoch: 21 March)

Event Time Altitude Azimuth Distance (km) Brightness Sun altitude
Rises 17:48:23 0° 238° (WSW) 2,777 8.0 -8.0°
Reaches altitude 10° 17:50:39 10° 245° (WSW) 1,909 7.1 -8.3°
Maximum altitude 17:54:46 43° 317° (NW) 865 4.1 -9.0°
Drops below altitude 10° 17:59:06 10° 30° (NNE) 2,004 5.3 -9.7°
Enters shadow 18:00:29 - 34° (NE) 2,525 5.8 -9.9°
